User: anonymous   Login
Location: Campillo
(40.8621°N, 4.2488°W)
Time: 13:29:14
(UTC+00:00)
Language:

SJ-6B - Orbit

View from above orbital plane
View from above orbital plane
View from above satellite
View from above satellite

Ground track
Ground track

The orbit data is extracted from the following two-line orbital elements,

1 28415U 04035C   21211.85445290  .00000713  00000-0  50226-4 0  9996
2 28415  97.5619 253.6503 0052200  40.5429 319.9669 15.07172156925145
Epoch (UTC): 30 July 2021 20:30:24
Eccentricity: 0.0052200
inclination: 97.5619°
perigee height: 509 km
apogee height: 581 km
right ascension of ascending node: 253.6503°
argument of perigee: 40.5429°
revolutions per day: 15.07172156
mean anomaly at epoch: 319.9669°
orbit number at epoch: 92514

The dashed part of the orbit path shows where the satellite is in the earth's shadow,  

DLR